Location: Beverley
(50.2667°N, 107.9667°W)
Time: 08:01:00
(UTC+00:00)

PicSat - Visible Passes

Search period start: 27 June 2022 00:00
Search period end: 07 July 2022 00:00
Orbit: 453 x 459 km, 97.4° (Epoch: 26 June)

Date Brightness Start Highest point End Pass type
(mag) Time Alt. Az. Time Alt. Az. Time Alt. Az.
27 Jun ? 04:39:45 11° SE 04:42:32 28° ENE 04:45:32 10° N visible
27 Jun ? 06:13:31 15° SW 06:15:25 23° W 06:18:13 10° NW visible
28 Jun ? 05:40:01 21° S 05:42:06 55° W 05:45:30 10° NNW visible
29 Jun ? 05:06:30 18° SSE 05:08:54 56° ENE 05:12:17 10° N visible
29 Jun ? 06:40:44 10° WSW 06:42:07 12° W 06:43:32 10° WNW visible
30 Jun ? 04:32:59 10° ESE 04:35:49 24° ENE 04:38:39 10° N visible
30 Jun ? 06:06:42 17° SW 06:08:36 27° W 06:11:36 10° NW visible
01 Jul ? 05:33:06 22° S 05:35:12 68° WSW 05:38:39 10° NNW visible
02 Jul ? 04:59:28 16° SE 05:01:55 46° ENE 05:05:15 10° N visible
02 Jul ? 06:33:13 10° WSW 06:35:03 14° W 06:37:00 10° NW visible
03 Jul ? 04:26:08 10° ESE 04:28:45 21° ENE 04:31:23 10° NNE visible
03 Jul ? 05:59:33 19° SSW 06:01:26 32° W 06:04:36 10° NNW visible
04 Jul ? 05:25:51 22° S 05:27:58 84° WSW 05:31:26 10° NNW visible
05 Jul ? 04:52:06 15° SE 04:54:36 37° ENE 04:57:50 10° N visible
05 Jul ? 06:25:51 13° SW 06:27:38 17° W 06:29:59 10° NW visible
06 Jul ? 04:19:01 10° ESE 04:21:21 17° ENE 04:23:42 10° NNE visible
06 Jul ? 05:52:05 21° SSW 05:53:57 40° W 05:57:14 10° NNW visible
